STARLINK-34988, 65453

Orbit data source: Space-Track

STARLINK-34988, 65453 is a payload satellite owned by SpaceX/Seattle (US) in SSO that was launched on Wed, 03 Sep 2025 UTC via an FALCON 9 launch vehicle from the Air Force Western Test Range (AFWTR). Payload-class satellites include a variety of spacecraft equipped with specific instruments for various scientific and technological missions. These include communications satellites like Starlink; space stations such as the ISS; scientific satellites like the Hubble; Earth observation satellites from companies like Planet Labs, Umbra, and HawkEye 360; GPS; miniature CubeSats for education and research; and military/defense satellites.

Loading next visibility...
Identifier
65453, 2025-194V
Orbit
SSO
Country
Flag of USUS
Related business
Manufacturer
SpaceX/Seattle
Mission
Operational Commercial Communications
Bus & Motor
STARLINK V2MO, Unknown motor
Mass
575 kg wet, ~530 kg dry
Launch date (UTC)
2025-09-03 (10 months ago)
Launch vehicle
FALCON 9
Launch site
Air Force Western Test Range (AFWTR)
Object type
Payload
Rocket body
Debris
Shape & HBR
Box + 2 Pan, 17.7 m
Radar Cross Section
36.964 m², Large (>1 m²)

Expand to show TLE details & history
Last TLE update: 1 day ago

TLE from 1 day ago
0 STARLINK-34988
1 65453U 25194V   26170.57004062  .00003517  00000-0  25301-3 0  9994
2 65453  97.4581  24.9267 0002425  69.9654 290.1834 15.04853307 45025
Epoch: 2026-06-19T13:40Z
TLE epoch observation values (Epoch: 2026-06-19T13:40:51.509Z)
Latitude
0.00001°
Longitude
-88.08504°
Altitude
554.445 km
Speed
7.585 km/s
True Right ascension
01h 39m 42s
True Declination
0° 00' 00"
Sunlit
Object was in daylight at epoch
Visualization orbit readout
Latitude
Unknown
Longitude
Unknown
Altitude
Unknown
Speed
Unknown
Apparent Right ascension
Unknown
Apparent Declination
Unknown
Sunlit
N/A
Visualization observer readout
Local Sidereal Time
07:15:38
Azimuth
Unknown
Elevation
Unknown
Doppler factor
Unknown
Orbital elements
Apogee altitude
550.624 km
Perigee altitude
547.264 km
Semi-major axis
6,927.081 km
Eccentricity
0.00024
Inclination
97.4581°
RAAN
24.9267°
Arg. of periapsis
69.9654°
True anomaly
290.15732°
Mean anomaly
290.1834°
Eccentric anomaly
290.17036°
Mean motion
3.76459 °/min
Orbital period
95.63 mins
BSTAR
0.00025301
Loading maneuver chart data...
Computing Atmospheric mass density...
Loading historical data...
Loading historical data...
Loading historical data...
Loading historical data...
Loading historical data...
Loading historical data...
Loading historical data...

Documentation

Showing up to 5 results
|